#timestamp,LO_Frequency,Hit,StdDev 
1633158015.1,286046997.2,N
1633158035.9,286046997.8,N
1633158055.7,286046996.9,N
1633158075.6,286046996.6,N
1633158095.4,286046998.0,N
1633158115.2,286046999.1,N
1633158135.1,286046997.4,N
1633158136.0,286046997.4,N
1633158155.8,286046997.1,N
1633158175.7,286046995.0,Y
1633158195.5,286046993.5,P
1633158215.3,286046996.2,N
1633158235.2,286046993.3,P
1633158255.0,286046995.5,N
1633158255.9,286046995.5,N
1633158275.7,286046995.7,N
1633158295.6,286046995.1,Y
1633158315.4,286047001.2,P
1633158335.3,286047003.2,N
1633158355.1,286047004.8,N
1633158375.8,286047007.1,N
1633158395.7,286047006.2,N
1633158415.5,286047008.6,N
1633158435.4,286047008.7,N
1633158455.2,286047006.9,N
1633158475.0,286047005.0,N
1633158475.9,286047005.0,N
1633158495.8,286047005.5,N
1633158515.6,286047007.0,N
1633158535.4,286047004.7,N
1633158555.3,286047004.3,N
1633158575.1,286047007.6,N
1633158595.9,286047004.9,N
1633158615.7,286047005.5,N
1633158635.5,286047003.4,N
1633158655.4,286047002.5,N
1633158675.2,286047002.8,N
1633158695.0,286047002.1,N
1633158695.9,286047002.1,N
1633158715.8,286046999.9,N
1633158765.7,286046998.7,E
1633158775.6,286047001.1,N
1633158795.4,286046999.2,P
1633158815.2,286046999.6,N
1633158835.1,286046999.0,N
1633158836.0,286046999.0,N
1633158855.8,286046999.5,N
1633158875.7,286047002.6,Y
1633158895.5,286047002.3,P
1633158915.3,286046999.4,N
1633158935.2,286047001.2,N
1633158955.0,286047001.1,N
1633158955.9,286047001.1,N
1633158975.8,286046998.8,N
1633158995.6,286046996.7,N
1633159015.4,286046996.8,N
1633159035.3,286046997.7,N
1633159055.1,286046997.4,N
1633159075.9,286046997.5,N
1633159095.7,286046996.8,N
1633159115.5,286046997.1,N
1633159135.4,286046997.6,N
1633159155.2,286046997.1,N
1633159175.0,286046998.2,N
1633159175.9,286046998.2,N
1633159195.8,286046998.7,N
1633159215.6,286046997.6,N
1633159235.5,286046996.1,N
1633159255.3,286046996.3,N
1633159275.1,286046996.1,N
1633159295.9,286046993.4,Y
1633159315.7,286046995.3,P
1633159335.5,286046995.6,P
1633159355.4,286046995.2,P
1633159375.2,286046995.2,Y
1633159395.1,286046998.7,P
1633159396.0,286046998.7,N
1633159415.8,286047001.8,N
1633159435.6,286047004.0,N
1633159455.5,286047003.9,N
1633159475.3,286047002.6,N
1633159495.2,286046999.9,N
1633159515.9,286047001.0,N
1633159535.7,286047002.8,N
1633159555.6,286047000.2,N
1633159575.4,286047002.6,N
1633159595.2,286047002.7,N
1633159615.1,286046998.9,N
1633159616.0,286046998.9,N
1633159635.8,286046998.9,N
1633159655.7,286046998.9,N
1633159675.5,286046994.9,N
1633159695.3,286046998.0,N
1633159715.2,286046995.4,N
1633159735.0,286046995.6,N
1633159735.9,286046995.6,N
1633159755.7,286046995.5,N
1633159775.6,286046995.6,N
1633159795.4,286046993.4,N
1633159815.3,286046995.7,N
1633159835.1,286046997.3,N
1633159836.0,286046997.3,N
1633159855.8,286046998.8,N
1633159875.7,286046998.3,N
1633159895.5,286046999.7,N
1633159915.3,286046998.8,N
1633159935.2,286046998.8,N
1633159955.0,286046999.1,N
1633159955.9,286046999.1,N
1633159975.8,286046999.2,N
1633159995.6,286046998.4,N
1633160015.4,286046996.7,N
1633160035.3,286046995.0,N
1633160055.1,286046995.4,N
1633160075.9,286046994.9,N
1633160095.7,286046996.0,N
1633160115.5,286046996.0,N
1633160135.4,286046997.6,N
1633160155.2,286046993.3,Y
1633160175.0,286046996.5,P
1633160175.9,286046996.5,P
1633160195.8,286046997.0,P
1633160215.6,286047001.2,Y
1633160235.5,286047000.3,P
1633160255.3,286046999.7,N
1633160275.1,286047000.1,N
1633160295.9,286047001.3,N
1633160315.7,286047002.7,N
1633160335.5,286046999.9,N
1633160355.4,286047000.6,N
1633160375.2,286046998.1,N
1633160395.1,286046998.4,N
1633160396.0,286046998.4,N
1633160415.8,286046998.2,N
1633160435.6,286047001.2,N
1633160455.5,286046998.2,N
1633160475.3,286047000.6,N
1633160495.2,286047000.9,N
1633160515.9,286047001.9,N
1633160535.7,286047000.1,N
1633160555.6,286047000.5,N
1633160575.4,286047000.3,N
1633160595.2,286047000.4,N
1633160615.1,286047000.1,N
1633160616.0,286047000.1,N
1633160635.8,286047001.0,N
1633160655.7,286046998.5,N
1633160675.5,286046998.6,N
1633160695.3,286046999.4,N
1633160715.2,286046999.1,N
1633160735.0,286046999.1,N
1633160735.9,286046999.1,N
1633160755.7,286046999.2,N
1633160775.6,286046996.6,N
1633160795.4,286046996.5,N
1633160815.3,286046994.9,Y
1633160835.1,286046993.9,P
1633160855.8,286046994.2,N
1633160875.7,286046996.0,N
1633160895.5,286046994.7,N
1633160915.4,286046992.7,Y
1633160935.2,286046995.1,P
1633160955.0,286046994.9,P
1633160955.9,286046994.9,P
1633160975.8,286046997.7,Y
1633160995.6,286046999.7,P
1633161015.4,286047002.6,N
1633161035.3,286046999.7,N
1633161055.1,286047001.8,N
1633161075.9,286047001.9,N
1633161095.7,286047001.4,N
1633161115.5,286047001.3,N
1633161135.4,286047001.4,N
1633161155.2,286047004.1,N
1633161175.0,286047001.3,N
1633161176.0,286047001.3,N
1633161195.8,286047000.1,N
1633161215.6,286046999.8,N
1633161235.5,286047003.9,N
1633161255.3,286047004.4,N
1633161275.1,286047002.6,N
1633161295.9,286046999.8,N
1633161315.7,286047001.9,N
1633161335.6,286046999.7,N
1633161355.4,286047000.3,N
1633161375.2,286047000.4,N
1633161395.1,286046998.4,N
1633161396.0,286046998.4,N
1633161415.8,286046996.9,N
1633161435.6,286046997.8,N
1633161455.5,286046997.5,N
1633161475.3,286046996.1,N
1633161495.2,286046993.4,N
1633161515.9,286046993.5,N
1633161535.7,286046996.1,N
1633161555.6,286046995.8,N
1633161575.4,286046997.4,N
1633161595.3,286046997.4,N
